Tracking 18784 objects as of 17-August-2017
HD Live streaming from Space Station
objects crossing your sky now

COSMOS 2251 DEB

Track COSMOS 2251 DEB now!
10-day predictions


NORAD ID: 35448
Int'l Code: 1993-036AKS
Perigee: 754.5 km
Apogee: 774.6 km
Inclination: 73.9 °
Period: 100.0 minutes
Semi major axis: 7135 km
RCS: 0.0138 m2 (small)
Launch date: June 16, 1993
Source: Commonwealth of Independent States (former USSR) (CIS)
Launch site: PLESETSK MISSILE AND SPACE COMPLEX (PKMTR)

Note: This is SATELLITE DEBRIS
Your satellite tracking list
Your tracking list is empty





NASA's NSSDC Master Catalog

Two Line Element Set (TLE):
1 35448U 93036AKS 17226.44124484 +.00000351 +00000-0 +11933-3 0  9993
2 35448 073.9090 028.7681 0014061 118.9394 241.3172 14.40327564434314
Source of the keplerian elements: AFSPC